M I D A S
Marine Information and Data Acquisition System
Tripno 631 of the Zeeleeuw from 2004-01-21 07:43:08 to 2004-01-21 15:52:35
Back to CruiseResearch ActivitiesStationsMapUnderway DataData graphs

EquipmentUnitsComments
TimeDGPSUTC
LatitudeDGPSDM.mWGS84
LongitudeDGPSDM.mWGS84
SpeedMeteo Stationm/sRelative wind speed
DirectionMeteo StationdegRelative wind direction
TemperatureMeteo Stationdeg CelciusAir temperature
PressureMeteo StationPaAtmospheric pressure
HumidityMeteo Station%Relative humidity
Missing or incorrect values are displayed as -999
Metereological data collected by the RV Zeeleeuw from 2004-01-21 07:43:08 to 2004-01-21 15:52:35
                                                                                    Next 1000 lines
Time Latitude Longitude Speed Direction Temperature Pressure Humidity
2004-01-21 07:43:15 51°13.934 2°55.55 1.4 91 3.4 101840 76
2004-01-21 07:43:19 51°13.941 2°55.544 1.7 91 3.4 101840 76
2004-01-21 07:43:23 51°13.949 2°55.539 1.9 83 3.4 101840 76
2004-01-21 07:43:28 51°13.958 2°55.533 2 122 3.4 101840 76
2004-01-21 07:43:35 51°13.972 2°55.524 2.1 119 3.4 101840 76
2004-01-21 07:43:39 51°13.979 2°55.519 2.7 114 3.4 101840 76
2004-01-21 07:43:45 51°13.991 2°55.511 1.5 143 3.4 101840 76
2004-01-21 07:43:49 51°13.998 2°55.506 1.9 155 3.4 101840 76
2004-01-21 07:43:55 51°14.01 2°55.498 1.9 149 3.4 101840 76
2004-01-21 07:43:59 51°14.017 2°55.493 2.2 128 3.4 101840 76
2004-01-21 07:44:03 51°14.025 2°55.488 2 124 3.4 101840 76
2004-01-21 07:44:10 51°14.038 2°55.479 1.8 113 3.4 101840 76
2004-01-21 07:44:15 51°14.048 2°55.473 2 98 3.4 101840 76
2004-01-21 07:44:20 51°14.057 2°55.466 1.6 99 3.4 101840 76
2004-01-21 07:44:24 51°14.065 2°55.46 1.3 102 3.4 101840 76
2004-01-21 07:44:30 51°14.077 2°55.452 1.2 105 3.4 101840 76
2004-01-21 07:44:35 51°14.087 2°55.444 1.2 106 3.4 101840 76
2004-01-21 07:44:39 51°14.095 2°55.439 1.4 128 3.4 101840 76
2004-01-21 07:44:43 51°14.103 2°55.433 1.7 134 3.4 101840 76
2004-01-21 07:44:50 51°14.117 2°55.422 2 129 3.4 101840 76
2004-01-21 07:44:55 51°14.128 2°55.413 1.9 130 3.4 101840 76
2004-01-21 07:44:59 51°14.136 2°55.406 2.1 122 3.4 101840 76
2004-01-21 07:45:03 51°14.145 2°55.399 2.9 97 3.4 101840 76
2004-01-21 07:45:07 51°14.154 2°55.392 2.4 113 3.4 101840 76
2004-01-21 07:45:15 51°14.173 2°55.376 2.1 122 3.4 101840 76
2004-01-21 07:45:20 51°14.184 2°55.365 1.7 121 3.4 101840 76
2004-01-21 07:45:25 51°14.196 2°55.355 1.4 124 3.4 101840 76
2004-01-21 07:45:30 51°14.208 2°55.344 1.3 124 3.4 101840 76
2004-01-21 07:45:35 51°14.22 2°55.331 1.2 134 3.4 101840 76
2004-01-21 07:45:39 51°14.229 2°55.32 1 140 3.4 101840 76
2004-01-21 07:45:44 51°14.24 2°55.306 0.6 146 3.4 101840 76
2004-01-21 07:45:47 51°14.246 2°55.296 0.6 160 3.4 101840 76
2004-01-21 07:45:55 51°14.263 2°55.269 0.4 162 3.4 101830 76
2004-01-21 07:45:59 51°14.27 2°55.255 0.4 185 3.4 101830 76
2004-01-21 07:46:03 51°14.278 2°55.241 1.2 275 3.4 101840 76
2004-01-21 07:46:09 51°14.29 2°55.219 1 236 3.4 101840 76
2004-01-21 07:46:15 51°14.301 2°55.196 1.3 244 3.4 101840 76
2004-01-21 07:46:19 51°14.309 2°55.182 0.9 242 3.4 101840 76
2004-01-21 07:46:24 51°14.318 2°55.162 1.6 270 3.4 101840 76
2004-01-21 07:46:30 51°14.328 2°55.139 1.2 287 3.4 101840 76
2004-01-21 07:46:35 51°14.337 2°55.118 1.1 297 3.4 101840 76
2004-01-21 07:46:40 51°14.346 2°55.097 0.8 301 3.4 101840 76
2004-01-21 07:46:43 51°14.351 2°55.084 2.3 306 3.4 101830 76
2004-01-21 07:46:49 51°14.36 2°55.057 3.2 330 3.4 101830 76
2004-01-21 07:46:55 51°14.368 2°55.029 3.2 327 3.4 101840 76
2004-01-21 07:47:00 51°14.373 2°55.004 4.3 322 3.4 101840 76
2004-01-21 07:47:05 51°14.377 2°54.978 5 237 3.4 101830 76
2004-01-21 07:47:09 51°14.381 2°54.957 4.1 309 3.4 101830 76
2004-01-21 07:47:15 51°14.386 2°54.925 5.4 41 3.4 101840 76
2004-01-21 07:47:19 51°14.389 2°54.904 5.5 308 3.4 101840 76
2004-01-21 07:47:23 51°14.392 2°54.882 4.7 300 3.4 101830 76
2004-01-21 07:47:30 51°14.396 2°54.843 4.7 299 3.4 101830 76
2004-01-21 07:47:35 51°14.398 2°54.815 4.9 310 3.4 101830 76
2004-01-21 07:47:39 51°14.399 2°54.792 4.9 325 3.4 101830 76
2004-01-21 07:47:43 51°14.4 2°54.768 6.8 316 3.5 101820 76
2004-01-21 07:47:49 51°14.399 2°54.733 6.3 320 3.5 101820 76
2004-01-21 07:47:55 51°14.397 2°54.697 7.2 336 3.5 101820 76
2004-01-21 07:47:59 51°14.396 2°54.673 7.3 315 3.5 101820 76
2004-01-21 07:48:03 51°14.394 2°54.649 6.7 318 3.5 101820 76
2004-01-21 07:48:09 51°14.391 2°54.613 6.7 322 3.5 101820 76
2004-01-21 07:48:15 51°14.385 2°54.576 7 316 3.4 101820 76
2004-01-21 07:48:20 51°14.38 2°54.546 7.4 323 3.4 101820 76
2004-01-21 07:48:25 51°14.374 2°54.517 7.2 322 3.4 101820 76
2004-01-21 07:48:30 51°14.368 2°54.487 6.4 322 3.4 101820 76
2004-01-21 07:48:35 51°14.362 2°54.458 7.7 325 3.4 101810 76
2004-01-21 07:48:39 51°14.357 2°54.435 7.1 325 3.4 101810 76
2004-01-21 07:48:43 51°14.351 2°54.412 7.2 331 3.4 101820 76
2004-01-21 07:48:50 51°14.339 2°54.372 9 328 3.4 101820 76
2004-01-21 07:48:55 51°14.33 2°54.345 8.9 323 3.4 101810 76
2004-01-21 07:49:00 51°14.32 2°54.318 9.6 325 3.4 101810 76
2004-01-21 07:49:05 51°14.31 2°54.291 11.2 324 3.5 101810 76
2004-01-21 07:49:07 51°14.306 2°54.28 10 323 3.5 101810 76
2004-01-21 07:49:15 51°14.289 2°54.238 8.7 328 3.5 101810 76
2004-01-21 07:49:19 51°14.28 2°54.217 8.8 324 3.5 101810 76
2004-01-21 07:49:25 51°14.267 2°54.185 9.6 42 3.5 101800 76
2004-01-21 07:49:30 51°14.257 2°54.158 9.7 323 3.5 101800 76
2004-01-21 07:49:35 51°14.248 2°54.13 10.6 314 3.5 101800 75
2004-01-21 07:49:40 51°14.238 2°54.103 7.8 313 3.5 101800 75
2004-01-21 07:49:44 51°14.23 2°54.081 8.9 315 3.5 101800 75
2004-01-21 07:49:50 51°14.218 2°54.048 9.4 328 3.5 101800 75
2004-01-21 07:49:55 51°14.207 2°54.022 9.7 319 3.5 101800 75
2004-01-21 07:49:59 51°14.199 2°54.001 9.7 325 3.5 101800 75
2004-01-21 07:50:05 51°14.185 2°53.97 10.7 329 3.5 101800 75
2004-01-21 07:50:10 51°14.174 2°53.943 10.6 323 3.5 101800 75
2004-01-21 07:50:15 51°14.162 2°53.918 10 326 3.5 101800 75
2004-01-21 07:50:19 51°14.153 2°53.898 9.8 326 3.5 101800 75
2004-01-21 07:50:25 51°14.138 2°53.867 10.4 323 3.5 101800 75
2004-01-21 07:50:30 51°14.127 2°53.842 10.3 321 3.5 101800 75
2004-01-21 07:50:35 51°14.115 2°53.816 10.1 320 3.5 101800 75
2004-01-21 07:50:40 51°14.103 2°53.79 9.8 317 3.5 101800 75
2004-01-21 07:50:43 51°14.097 2°53.775 9.6 324 3.5 101790 75
2004-01-21 07:50:50 51°14.082 2°53.737 10.2 324 3.5 101790 75
2004-01-21 07:50:55 51°14.072 2°53.709 10.5 325 3.5 101790 75
2004-01-21 07:51:00 51°14.062 2°53.681 9.3 328 3.5 101790 75
2004-01-21 07:51:03 51°14.057 2°53.664 9.4 323 3.5 101790 75
2004-01-21 07:51:10 51°14.043 2°53.625 8.3 325 3.5 101790 75
2004-01-21 07:51:15 51°14.035 2°53.597 10 319 3.5 101800 75
2004-01-21 07:51:20 51°14.026 2°53.568 10.2 317 3.5 101800 75
2004-01-21 07:51:23 51°14.02 2°53.551 9.1 315 3.5 101800 75
2004-01-21 07:51:30 51°14.007 2°53.511 10 317 3.5 101800 75
2004-01-21 07:51:35 51°13.998 2°53.483 8.2 322 3.5 101800 75
2004-01-21 07:51:40 51°13.988 2°53.455 9.7 322 3.5 101800 75
2004-01-21 07:51:45 51°13.978 2°53.427 10 324 3.5 101800 75
2004-01-21 07:51:50 51°13.969 2°53.399 9.5 317 3.5 101800 75
2004-01-21 07:51:55 51°13.958 2°53.371 10.4 328 3.5 101800 75
2004-01-21 07:51:59 51°13.951 2°53.349 10.1 317 3.5 101800 75
2004-01-21 07:52:03 51°13.942 2°53.327 8.7 319 3.5 101800 75
2004-01-21 07:52:08 51°13.933 2°53.298 10.6 329 3.5 101800 75
2004-01-21 07:52:15 51°13.919 2°53.259 9.4 325 3.5 101790 75
2004-01-21 07:52:19 51°13.911 2°53.237 8.8 323 3.5 101790 75
2004-01-21 07:52:23 51°13.903 2°53.214 10 328 3.5 101790 75
2004-01-21 07:52:27 51°13.896 2°53.191 9.7 44 3.5 101790 75
2004-01-21 07:52:35 51°13.881 2°53.146 8.6 311 3.5 101800 75
2004-01-21 07:52:40 51°13.871 2°53.117 7.6 227 3.5 101800 75
2004-01-21 07:52:43 51°13.866 2°53.1 9 229 3.5 101800 75
2004-01-21 07:52:50 51°13.853 2°53.06 9.3 318 3.5 101800 75
2004-01-21 07:52:55 51°13.844 2°53.031 8.8 41 3.5 101790 75
2004-01-21 07:52:59 51°13.836 2°53.008 9.2 312 3.5 101790 75
2004-01-21 07:53:03 51°13.828 2°52.985 8.3 324 3.4 101800 75
2004-01-21 07:53:09 51°13.817 2°52.95 8.8 328 3.4 101800 75
2004-01-21 07:53:15 51°13.805 2°52.916 7.6 328 3.4 101810 75
2004-01-21 07:53:19 51°13.797 2°52.893 9.9 45 3.4 101810 75
2004-01-21 07:53:23 51°13.789 2°52.871 9.8 314 3.4 101800 75
2004-01-21 07:53:29 51°13.777 2°52.836 9.3 318 3.4 101800 75
2004-01-21 07:53:35 51°13.766 2°52.801 10.2 317 3.4 101800 75
2004-01-21 07:53:39 51°13.759 2°52.778 8.7 320 3.4 101800 75
2004-01-21 07:53:43 51°13.751 2°52.755 9.3 323 3.4 101800 75
2004-01-21 07:53:50 51°13.738 2°52.714 9.7 318 3.4 101800 75
2004-01-21 07:53:55 51°13.729 2°52.685 8.5 324 3.5 101790 75
2004-01-21 07:54:00 51°13.719 2°52.656 9 321 3.5 101790 75
2004-01-21 07:54:03 51°13.714 2°52.638 9 328 3.5 101800 75
2004-01-21 07:54:10 51°13.701 2°52.598 8.4 323 3.5 101800 75
2004-01-21 07:54:15 51°13.692 2°52.568 7.8 322 3.4 101790 75
2004-01-21 07:54:19 51°13.684 2°52.545 8.9 328 3.4 101790 75
2004-01-21 07:54:23 51°13.676 2°52.522 9.4 319 3.5 101800 75
2004-01-21 07:54:30 51°13.663 2°52.481 8.9 322 3.5 101800 75
2004-01-21 07:54:35 51°13.654 2°52.452 9.7 328 3.5 101790 76
2004-01-21 07:54:40 51°13.644 2°52.423 9.4 322 3.5 101790 76
2004-01-21 07:54:43 51°13.639 2°52.405 9.6 325 3.5 101790 76
2004-01-21 07:54:50 51°13.626 2°52.365 9.4 41 3.5 101790 76
2004-01-21 07:54:55 51°13.616 2°52.335 9 316 3.5 101790 76
2004-01-21 07:55:00 51°13.606 2°52.306 8.6 315 3.5 101790 76
2004-01-21 07:55:03 51°13.6 2°52.289 9.3 324 3.5 101810 76
2004-01-21 07:55:10 51°13.586 2°52.248 8.6 328 3.5 101810 76
2004-01-21 07:55:15 51°13.577 2°52.219 9.4 320 3.5 101780 76
2004-01-21 07:55:20 51°13.567 2°52.19 9.3 43 3.5 101780 76
2004-01-21 07:55:23 51°13.562 2°52.173 8.3 322 3.5 101790 76
2004-01-21 07:55:30 51°13.549 2°52.132 8.2 323 3.5 101790 76
2004-01-21 07:55:35 51°13.539 2°52.103 7.5 322 3.5 101790 76
2004-01-21 07:55:40 51°13.53 2°52.073 9.2 326 3.5 101790 76
2004-01-21 07:55:45 51°13.52 2°52.044 9.5 328 3.5 101790 76
2004-01-21 07:55:50 51°13.511 2°52.014 9.2 324 3.5 101790 76
2004-01-21 07:55:55 51°13.502 2°51.985 9.3 325 3.5 101790 76
2004-01-21 07:56:00 51°13.492 2°51.956 8.7 322 3.5 101790 76
2004-01-21 07:56:03 51°13.487 2°51.938 7.8 325 3.5 101800 76
2004-01-21 07:56:10 51°13.474 2°51.897 8.9 329 3.5 101800 76
2004-01-21 07:56:15 51°13.464 2°51.867 9.6 316 3.5 101790 76
2004-01-21 07:56:19 51°13.456 2°51.844 9.5 323 3.5 101790 76
2004-01-21 07:56:25 51°13.445 2°51.809 10.9 317 3.5 101790 76
2004-01-21 07:56:30 51°13.435 2°51.78 9.8 323 3.5 101790 76
2004-01-21 07:56:35 51°13.425 2°51.751 9.2 320 3.5 101790 76
2004-01-21 07:56:39 51°13.417 2°51.727 8.5 317 3.5 101790 76
2004-01-21 07:56:43 51°13.409 2°51.704 8.9 318 3.5 101790 76
2004-01-21 07:56:50 51°13.396 2°51.663 8.9 326 3.5 101790 76
2004-01-21 07:56:55 51°13.386 2°51.633 9.4 323 3.5 101790 76
2004-01-21 07:56:59 51°13.378 2°51.61 9.1 322 3.5 101790 76
2004-01-21 07:57:03 51°13.371 2°51.586 8.6 325 3.5 101790 76
2004-01-21 07:57:09 51°13.359 2°51.551 8.5 322 3.5 101790 76
2004-01-21 07:57:15 51°13.347 2°51.515 8.4 324 3.5 101790 76
2004-01-21 07:57:19 51°13.339 2°51.492 7.7 322 3.5 101790 76
2004-01-21 07:57:23 51°13.332 2°51.469 8.8 325 3.5 101790 76
2004-01-21 07:57:27 51°13.324 2°51.445 9.5 327 3.5 101790 76
2004-01-21 07:57:35 51°13.308 2°51.399 8.6 327 3.5 101800 76
2004-01-21 07:57:40 51°13.298 2°51.369 8.7 326 3.5 101800 76
2004-01-21 07:57:43 51°13.292 2°51.352 8.9 322 3.5 101800 76
2004-01-21 07:57:49 51°13.28 2°51.316 8.8 327 3.5 101800 76
2004-01-21 07:57:55 51°13.268 2°51.281 8.3 323 3.5 101800 77
2004-01-21 07:57:59 51°13.261 2°51.258 8.8 325 3.5 101800 77
2004-01-21 07:58:05 51°13.249 2°51.223 8 325 3.5 101790 77
2004-01-21 07:58:10 51°13.239 2°51.193 8.7 323 3.5 101790 77
2004-01-21 07:58:15 51°13.229 2°51.164 8.8 330 3.5 101790 77
2004-01-21 07:58:20 51°13.22 2°51.134 9.6 327 3.5 101790 77
2004-01-21 07:58:24 51°13.212 2°51.111 8.6 328 3.5 101800 77
2004-01-21 07:58:28 51°13.204 2°51.087 8.7 328 3.5 101800 77
2004-01-21 07:58:35 51°13.19 2°51.046 8.7 331 3.5 101800 77
2004-01-21 07:58:39 51°13.182 2°51.023 9.1 325 3.5 101800 77
2004-01-21 07:58:45 51°13.17 2°50.988 9.1 328 3.5 101790 77
2004-01-21 07:58:49 51°13.161 2°50.965 8.1 322 3.5 101790 77
2004-01-21 07:58:55 51°13.149 2°50.93 9.7 326 3.6 101790 77
2004-01-21 07:58:59 51°13.141 2°50.907 9.4 327 3.6 101790 77
2004-01-21 07:59:04 51°13.13 2°50.878 9.3 324 3.6 101800 77
2004-01-21 07:59:10 51°13.118 2°50.844 9 323 3.6 101800 77
2004-01-21 07:59:15 51°13.107 2°50.815 9.9 322 3.6 101790 78
2004-01-21 07:59:19 51°13.1 2°50.792 10.7 318 3.6 101790 78
2004-01-21 07:59:25 51°13.087 2°50.757 8.9 322 3.6 101790 78
2004-01-21 07:59:28 51°13.081 2°50.74 10 322 3.6 101790 78
2004-01-21 07:59:35 51°13.067 2°50.7 9.5 322 3.6 101790 78
2004-01-21 07:59:39 51°13.059 2°50.676 9.4 319 3.6 101790 78
2004-01-21 07:59:45 51°13.047 2°50.642 9.1 320 3.6 101790 78
2004-01-21 07:59:49 51°13.038 2°50.619 8.5 325 3.6 101800 77
2004-01-21 07:59:55 51°13.026 2°50.584 9.2 320 3.6 101800 77
2004-01-21 07:59:59 51°13.018 2°50.561 8.7 327 3.5 101800 77
2004-01-21 08:00:05 51°13.006 2°50.526 9.3 322 3.5 101800 77
2004-01-21 08:00:09 51°12.998 2°50.503 8.8 319 3.6 101800 77
2004-01-21 08:00:15 51°12.986 2°50.468 9.5 43 3.6 101800 77
2004-01-21 08:00:19 51°12.978 2°50.445 9.9 318 3.5 101800 77
2004-01-21 08:00:23 51°12.97 2°50.422 9.7 322 3.5 101800 77
2004-01-21 08:00:30 51°12.956 2°50.381 9.4 319 3.6 101800 77
2004-01-21 08:00:35 51°12.946 2°50.352 9.5 319 3.6 101800 77
2004-01-21 08:00:40 51°12.935 2°50.323 8.9 323 3.6 101800 77
2004-01-21 08:00:45 51°12.925 2°50.294 4.4 322 3.6 101800 77
2004-01-21 08:00:48 51°12.919 2°50.277 9.1 318 3.6 101800 77
2004-01-21 08:00:55 51°12.904 2°50.237 9.4 319 3.6 101800 77
2004-01-21 08:00:59 51°12.896 2°50.214 8.8 316 3.6 101790 77
2004-01-21 08:01:03 51°12.888 2°50.191 8.2 317 3.6 101790 77
2004-01-21 08:01:09 51°12.876 2°50.156 8 317 3.6 101800 78
2004-01-21 08:01:15 51°12.864 2°50.121 8.9 323 3.6 101800 78
2004-01-21 08:01:20 51°12.854 2°50.092 9.6 318 3.6 101790 78
2004-01-21 08:01:25 51°12.844 2°50.063 8.5 322 3.6 101790 78
2004-01-21 08:01:30 51°12.834 2°50.034 8.1 319 3.6 101800 78
2004-01-21 08:01:35 51°12.824 2°50.005 8.5 42 3.6 101800 78
2004-01-21 08:01:39 51°12.816 2°49.982 8.6 319 3.6 101790 78
2004-01-21 08:01:43 51°12.808 2°49.958 8.6 322 3.6 101790 78
2004-01-21 08:01:47 51°12.8 2°49.935 9.3 319 3.6 101800 78
2004-01-21 08:01:55 51°12.783 2°49.889 9.5 322 3.6 101800 78
2004-01-21 08:01:59 51°12.775 2°49.866 10 319 3.6 101790 78
2004-01-21 08:02:03 51°12.767 2°49.842 9 319 3.6 101790 78
2004-01-21 08:02:10 51°12.753 2°49.802 9.2 317 3.6 101790 78
2004-01-21 08:02:15 51°12.744 2°49.773 8.2 323 3.6 101790 78
2004-01-21 08:02:19 51°12.735 2°49.75 8.5 321 3.6 101790 78
2004-01-21 08:02:23 51°12.727 2°49.727 8.8 317 3.6 101790 78
2004-01-21 08:02:30 51°12.713 2°49.686 8.6 321 3.6 101790 78
2004-01-21 08:02:35 51°12.703 2°49.658 8.8 326 3.6 101800 78
2004-01-21 08:02:39 51°12.695 2°49.634 9.5 317 3.6 101790 78
2004-01-21 08:02:45 51°12.683 2°49.599 9.2 314 3.6 101790 78
2004-01-21 08:02:50 51°12.673 2°49.571 8.9 226 3.6 101800 78
2004-01-21 08:02:53 51°12.667 2°49.553 9 320 3.6 101800 78
2004-01-21 08:02:59 51°12.655 2°49.519 8.7 322 3.6 101800 78
2004-01-21 08:03:05 51°12.643 2°49.484 10.3 321 3.6 101800 78
2004-01-21 08:03:10 51°12.633 2°49.455 9.3 319 3.6 101790 78
2004-01-21 08:03:15 51°12.623 2°49.427 9.3 316 3.6 101790 78
2004-01-21 08:03:19 51°12.615 2°49.404 8.2 320 3.6 101800 78
2004-01-21 08:03:25 51°12.602 2°49.369 8.4 318 3.6 101800 78
2004-01-21 08:03:29 51°12.594 2°49.346 8.8 315 3.6 101790 78
2004-01-21 08:03:35 51°12.583 2°49.312 8.2 327 3.6 101790 78
2004-01-21 08:03:39 51°12.574 2°49.289 8 322 3.6 101790 78
2004-01-21 08:03:45 51°12.562 2°49.255 8.7 321 3.6 101790 78
2004-01-21 08:03:50 51°12.552 2°49.226 9.3 323 3.6 101800 78
2004-01-21 08:03:55 51°12.542 2°49.198 8.7 316 3.6 101800 78
2004-01-21 08:03:59 51°12.534 2°49.175 8.3 322 3.6 101800 78
2004-01-21 08:04:05 51°12.522 2°49.141 8.2 325 3.6 101800 78
2004-01-21 08:04:10 51°12.513 2°49.112 8.8 326 3.6 101800 78
2004-01-21 08:04:15 51°12.502 2°49.084 8.5 318 3.6 101800 78
2004-01-21 08:04:20 51°12.492 2°49.055 9.3 323 3.6 101800 78
2004-01-21 08:04:24 51°12.485 2°49.032 9.6 319 3.6 101800 78
2004-01-21 08:04:29 51°12.474 2°49.004 9.4 315 3.6 101800 78
2004-01-21 08:04:35 51°12.463 2°48.97 8 315 3.6 101800 78
2004-01-21 08:04:39 51°12.455 2°48.947 7.7 320 3.6 101800 78
2004-01-21 08:04:45 51°12.443 2°48.913 8.2 324 3.6 101800 78
2004-01-21 08:04:47 51°12.439 2°48.902 8 316 3.6 101790 78
2004-01-21 08:04:55 51°12.424 2°48.856 7.5 322 3.6 101790 78
2004-01-21 08:04:59 51°12.417 2°48.832 7.8 318 3.6 101800 78
2004-01-21 08:05:05 51°12.406 2°48.797 8.1 323 3.6 101800 78
2004-01-21 08:05:08 51°12.401 2°48.779 7.9 324 3.6 101800 78
2004-01-21 08:05:15 51°12.389 2°48.737 7.5 318 3.6 101800 78
2004-01-21 08:05:19 51°12.382 2°48.713 8.1 318 3.6 101810 78
2004-01-21 08:05:25 51°12.373 2°48.677 7.7 319 3.6 101810 78
2004-01-21 08:05:30 51°12.364 2°48.648 7.8 326 3.6 101810 78
2004-01-21 08:05:35 51°12.356 2°48.618 8.7 317 3.6 101810 78
2004-01-21 08:05:40 51°12.347 2°48.588 8.7 43 3.6 101800 78
2004-01-21 08:05:45 51°12.339 2°48.558 8.1 317 3.6 101800 78
2004-01-21 08:05:48 51°12.333 2°48.54 7.7 318 3.6 101810 78
2004-01-21 08:05:55 51°12.322 2°48.498 8 315 3.6 101810 78
2004-01-21 08:05:59 51°12.315 2°48.474 7.7 318 3.6 101800 78
2004-01-21 08:06:05 51°12.305 2°48.438 7.7 320 3.6 101800 78
2004-01-21 08:06:09 51°12.298 2°48.414 8.1 322 3.6 101810 78
2004-01-21 08:06:15 51°12.288 2°48.378 8.1 325 3.6 101810 78
2004-01-21 08:06:20 51°12.279 2°48.348 8.4 323 3.6 101810 79
2004-01-21 08:06:25 51°12.27 2°48.318 8 325 3.6 101810 79
2004-01-21 08:06:30 51°12.262 2°48.288 7.7 329 3.6 101810 79
2004-01-21 08:06:35 51°12.253 2°48.258 8.1 319 3.6 101810 79
2004-01-21 08:06:40 51°12.245 2°48.228 8.1 320 3.6 101810 79
2004-01-21 08:06:45 51°12.236 2°48.198 7.3 323 3.6 101810 79
2004-01-21 08:06:47 51°12.233 2°48.186 8 319 3.7 101810 79
2004-01-21 08:06:55 51°12.219 2°48.138 7.4 319 3.7 101810 79
2004-01-21 08:07:00 51°12.211 2°48.107 8.7 329 3.6 101810 79
2004-01-21 08:07:03 51°12.206 2°48.089 9.1 321 3.6 101810 79
2004-01-21 08:07:10 51°12.195 2°48.046 7.8 321 3.6 101810 79
2004-01-21 08:07:13 51°12.19 2°48.028 9.1 319 3.6 101810 79
2004-01-21 08:07:19 51°12.181 2°47.991 7.5 324 3.6 101810 79
2004-01-21 08:07:24 51°12.174 2°47.961 7.8 327 3.6 101810 79
2004-01-21 08:07:29 51°12.166 2°47.93 7.1 319 3.6 101810 79
2004-01-21 08:07:35 51°12.157 2°47.894 7.9 319 3.6 101810 79
2004-01-21 08:07:40 51°12.15 2°47.863 7.6 316 3.6 101810 79
2004-01-21 08:07:43 51°12.145 2°47.844 7.7 326 3.6 101810 79
2004-01-21 08:07:47 51°12.139 2°47.82 7.9 317 3.6 101810 79
2004-01-21 08:07:55 51°12.127 2°47.771 7 325 3.6 101810 79
2004-01-21 08:07:59 51°12.121 2°47.746 7.5 329 3.6 101810 79
2004-01-21 08:08:05 51°12.112 2°47.709 7.4 327 3.6 101810 79
2004-01-21 08:08:10 51°12.105 2°47.679 7.3 319 3.6 101810 79
2004-01-21 08:08:15 51°12.098 2°47.648 6.5 312 3.6 101810 79
2004-01-21 08:08:20 51°12.09 2°47.617 7.9 316 3.6 101810 79
2004-01-21 08:08:25 51°12.083 2°47.586 7.6 314 3.6 101810 79
2004-01-21 08:08:29 51°12.076 2°47.562 6.7 42 3.6 101810 79
2004-01-21 08:08:35 51°12.067 2°47.525 7 319 3.6 101810 79
2004-01-21 08:08:39 51°12.062 2°47.501 7.1 324 3.7 101810 79
2004-01-21 08:08:44 51°12.054 2°47.47 7.3 321 3.7 101810 79
2004-01-21 08:08:50 51°12.046 2°47.432 7.1 319 3.7 101810 79
2004-01-21 08:08:55 51°12.04 2°47.401 7.5 330 3.7 101810 79
2004-01-21 08:08:59 51°12.035 2°47.376 8.4 321 3.7 101810 79
2004-01-21 08:09:05 51°12.027 2°47.338 8.3 323 3.7 101810 79
2004-01-21 08:09:10 51°12.021 2°47.307 7.9 320 3.7 101780 79
2004-01-21 08:09:15 51°12.014 2°47.275 7.7 324 3.7 101780 79
2004-01-21 08:09:19 51°12.009 2°47.25 7.4 328 3.7 101820 79
2004-01-21 08:09:23 51°12.004 2°47.225 8.6 322 3.7 101820 79
2004-01-21 08:09:27 51°11.999 2°47.2 9 319 3.7 101810 79
2004-01-21 08:09:35 51°11.988 2°47.15 8.7 227 3.7 101810 79
2004-01-21 08:09:39 51°11.983 2°47.124 7.2 313 3.7 101810 79
2004-01-21 08:09:45 51°11.975 2°47.087 7.4 323 3.7 101810 79
2004-01-21 08:09:50 51°11.968 2°47.055 7.9 324 3.7 101810 79
2004-01-21 08:09:55 51°11.961 2°47.024 8.1 319 3.7 101810 79
2004-01-21 08:09:59 51°11.956 2°46.999 7.9 316 3.6 101810 79
2004-01-21 08:10:05 51°11.948 2°46.961 8.2 320 3.6 101810 79
2004-01-21 08:10:10 51°11.941 2°46.929 7.7 321 3.7 101810 79
2004-01-21 08:10:15 51°11.935 2°46.898 8.1 319 3.7 101810 79
2004-01-21 08:10:19 51°11.93 2°46.872 8.2 317 3.7 101810 79
2004-01-21 08:10:25 51°11.922 2°46.835 7.5 315 3.7 101810 79
2004-01-21 08:10:30 51°11.915 2°46.803 8.6 315 3.7 101810 79
2004-01-21 08:10:35 51°11.908 2°46.772 8.3 311 3.7 101810 79
2004-01-21 08:10:39 51°11.903 2°46.746 8.5 311 3.7 101810 79
2004-01-21 08:10:43 51°11.898 2°46.721 9.1 315 3.7 101810 79
2004-01-21 08:10:49 51°11.89 2°46.683 7.6 306 3.7 101810 79
2004-01-21 08:10:55 51°11.882 2°46.645 7.3 41 3.7 101810 79
2004-01-21 08:10:59 51°11.877 2°46.62 7.5 321 3.7 101800 79
2004-01-21 08:11:05 51°11.868 2°46.582 8.3 324 3.7 101800 79
2004-01-21 08:11:09 51°11.863 2°46.557 8.4 321 3.6 101810 79
2004-01-21 08:11:15 51°11.855 2°46.519 7.9 317 3.6 101810 79
2004-01-21 08:11:19 51°11.849 2°46.494 8.3 316 3.7 101810 79
2004-01-21 08:11:25 51°11.841 2°46.456 7.3 228 3.7 101810 79
2004-01-21 08:11:29 51°11.836 2°46.43 8 41 3.7 101810 79
2004-01-21 08:11:35 51°11.828 2°46.392 9.1 41 3.7 101810 79
2004-01-21 08:11:39 51°11.823 2°46.367 8.5 314 3.7 101800 79
2004-01-21 08:11:45 51°11.815 2°46.329 8.3 313 3.7 101800 79
2004-01-21 08:11:47 51°11.812 2°46.317 7.8 319 3.7 101810 79
2004-01-21 08:11:55 51°11.802 2°46.266 7.9 318 3.7 101810 79
2004-01-21 08:11:59 51°11.796 2°46.24 9 325 3.7 101810 79
2004-01-21 08:12:05 51°11.788 2°46.203 8.7 317 3.7 101810 79
2004-01-21 08:12:10 51°11.782 2°46.171 9 316 3.7 101810 78
2004-01-21 08:12:15 51°11.775 2°46.139 9.5 315 3.7 101810 78
2004-01-21 08:12:19 51°11.769 2°46.114 8.6 316 3.6 101810 78
2004-01-21 08:12:25 51°11.762 2°46.076 8.6 311 3.6 101810 78
2004-01-21 08:12:29 51°11.757 2°46.05 8.4 229 3.6 101810 78
2004-01-21 08:12:34 51°11.75 2°46.019 9.3 41 3.6 101810 78
2004-01-21 08:12:40 51°11.742 2°45.981 8.7 227 3.7 101810 78
2004-01-21 08:12:45 51°11.736 2°45.949 7.8   3.7 101810 78
2004-01-21 08:12:50 51°11.729 2°45.917 7.3 321 3.7 101810 78
2004-01-21 08:12:55 51°11.722 2°45.886 8.4 317 3.7 101810 78
2004-01-21 08:12:59 51°11.717 2°45.86 8.9 43 3.7 101810 78
2004-01-21 08:13:05 51°11.709 2°45.822 8 318 3.7 101810 78
2004-01-21 08:13:10 51°11.702 2°45.79 8.1 323 3.7 101810 78
2004-01-21 08:13:15 51°11.695 2°45.759 8.2 322 3.7 101810 78
2004-01-21 08:13:20 51°11.689 2°45.727 7.2 330 3.7 101810 78
2004-01-21 08:13:25 51°11.682 2°45.696 8.2 316 3.7 101810 78
2004-01-21 08:13:29 51°11.677 2°45.67 7.7 320 3.7 101810 78
2004-01-21 08:13:33 51°11.672 2°45.645 8 41 3.7 101810 78
2004-01-21 08:13:39 51°11.664 2°45.607 7.7 322 3.7 101810 78
2004-01-21 08:13:44 51°11.657 2°45.575 7.7 316 3.7 101810 78
2004-01-21 08:13:50 51°11.65 2°45.537 8.3 42 3.7 101810 78
2004-01-21 08:13:55 51°11.643 2°45.506 8.4 228 3.7 101810 78
2004-01-21 08:13:59 51°11.637 2°45.48 6.8 320 3.7 101810 78
2004-01-21 08:14:05 51°11.63 2°45.442 7.5 317 3.7 101810 78
2004-01-21 08:14:10 51°11.623 2°45.411 7.7 322 3.7 101810 78
2004-01-21 08:14:15 51°11.616 2°45.379 7.7 320 3.7 101810 78
2004-01-21 08:14:19 51°11.611 2°45.354 7.3 320 3.7 101810 78
2004-01-21 08:14:25 51°11.603 2°45.315 7.5 313 3.7 101810 78
2004-01-21 08:14:30 51°11.597 2°45.284 7.3 314 3.7 101810 78
2004-01-21 08:14:35 51°11.59 2°45.252 8.1 316 3.7 101810 78
2004-01-21 08:14:39 51°11.585 2°45.227 7.5 310 3.7 101810 78
2004-01-21 08:14:45 51°11.577 2°45.189 8.1 319 3.7 101810 78
2004-01-21 08:14:50 51°11.571 2°45.157 8.2 227 3.7 101820 78
2004-01-21 08:14:55 51°11.564 2°45.125 8.1 315 3.7 101820 78
2004-01-21 08:14:59 51°11.559 2°45.1 7.8 314 3.7 101820 78
2004-01-21 08:15:03 51°11.554 2°45.075 7.7 312 3.7 101820 78
2004-01-21 08:15:09 51°11.546 2°45.037 6.8 318 3.7 101820 78
2004-01-21 08:15:15 51°11.538 2°44.999 7.3 226 3.7 101820 78
2004-01-21 08:15:19 51°11.533 2°44.973 7.6 327 3.7 101810 78
2004-01-21 08:15:25 51°11.525 2°44.936 7.3 317 3.7 101810 78
2004-01-21 08:15:29 51°11.52 2°44.91 7.7 318 3.7 101820 78
2004-01-21 08:15:35 51°11.512 2°44.872 8.4 228 3.7 101820 78
2004-01-21 08:15:39 51°11.507 2°44.847 7.5 315 3.7 101810 78
2004-01-21 08:15:45 51°11.499 2°44.809 8.4   3.7 101810 78
2004-01-21 08:15:47 51°11.496 2°44.796 7.6 312 3.7 101820 79
2004-01-21 08:15:55 51°11.486 2°44.746 7.2 307 3.7 101820 79
2004-01-21 08:15:59 51°11.481 2°44.72 7.6 43 3.7 101810 79
2004-01-21 08:16:03 51°11.476 2°44.695 7.4 319 3.7 101810 79
2004-01-21 08:16:09 51°11.469 2°44.657 7.9 314 3.7 101810 79
2004-01-21 08:16:15 51°11.461 2°44.619 7.1 312 3.7 101810 79
2004-01-21 08:16:19 51°11.457 2°44.593 7.7 312 3.7 101810 78
2004-01-21 08:16:23 51°11.452 2°44.568 6.6 313 3.7 101810 78
2004-01-21 08:16:28 51°11.446 2°44.535 6.4 315 3.7 101820 79
2004-01-21 08:16:35 51°11.438 2°44.49 7 316 3.7 101820 79
2004-01-21 08:16:39 51°11.433 2°44.465 8 228 3.7 101820 79
2004-01-21 08:16:45 51°11.426 2°44.427 7.4 41 3.7 101820 79
2004-01-21 08:16:50 51°11.42 2°44.395 8 322 3.7 101820 79
2004-01-21 08:16:55 51°11.415 2°44.363 8.8 323 3.7 101820 79
2004-01-21 08:16:59 51°11.41 2°44.337 7.8 42 3.8 101820 79
2004-01-21 08:17:05 51°11.402 2°44.299 8.1 315 3.8 101820 79
2004-01-21 08:17:09 51°11.398 2°44.274 7.9 310 3.8 101820 79
2004-01-21 08:17:15 51°11.39 2°44.235 7.4 307 3.8 101820 79
2004-01-21 08:17:19 51°11.386 2°44.21 7.4 41 3.8 101820 79
2004-01-21 08:17:25 51°11.379 2°44.172 8 316 3.8 101820 79
2004-01-21 08:17:28 51°11.375 2°44.153 7.5 42 3.8 101820 79
2004-01-21 08:17:35 51°11.367 2°44.108 7.1 315 3.8 101820 79
2004-01-21 08:17:39 51°11.362 2°44.082 6.8 317 3.8 101820 79
2004-01-21 08:17:43 51°11.358 2°44.056 7.2 313 3.8 101820 79
2004-01-21 08:17:47 51°11.353 2°44.031 7.6 316 3.8 101820 79
2004-01-21 08:17:55 51°11.343 2°43.98 7.4 227 3.8 101820 79
2004-01-21 08:17:59 51°11.338 2°43.955 7.2 315 3.8 101820 79
2004-01-21 08:18:05 51°11.331 2°43.916 6.9 318 3.8 101820 79
2004-01-21 08:18:09 51°11.327 2°43.891 7.8 42 3.8 101820 79
2004-01-21 08:18:15 51°11.319 2°43.853 7.3 320 3.8 101820 79
2004-01-21 08:18:19 51°11.315 2°43.827 7.3 318 3.8 101820 79
2004-01-21 08:18:25 51°11.307 2°43.79 7.5 320 3.8 101820 79
2004-01-21 08:18:30 51°11.3 2°43.758 8.1 323 3.7 101830 79
2004-01-21 08:18:35 51°11.294 2°43.727 8.1 318 3.7 101830 79
2004-01-21 08:18:40 51°11.287 2°43.695 8.2 309 3.7 101820 79
2004-01-21 08:18:44 51°11.282 2°43.67 8 315 3.7 101820 79
2004-01-21 08:18:48 51°11.277 2°43.645 7.6 314 3.8 101820 79
2004-01-21 08:18:52 51°11.272 2°43.62 7.9 42 3.8 101820 79
2004-01-21 08:18:59 51°11.262 2°43.577 7.5 318 3.8 101820 79
2004-01-21 08:19:03 51°11.257 2°43.552 7.8 316 3.8 101820 79
2004-01-21 08:19:09 51°11.249 2°43.514 7.1 319 3.8 101820 79
2004-01-21 08:19:15 51°11.241 2°43.477 7.4 316 3.8 101820 79
2004-01-21 08:19:19 51°11.236 2°43.452 7.6 315 3.8 101820 79
2004-01-21 08:19:25 51°11.228 2°43.415 7 321 3.8 101820 79
2004-01-21 08:19:29 51°11.223 2°43.389 6.9 319 3.8 101810 79
2004-01-21 08:19:35 51°11.215 2°43.352 7.3 316 3.8 101810 79
2004-01-21 08:19:39 51°11.21 2°43.327 7.2 44 3.8 101820 79
2004-01-21 08:19:45 51°11.202 2°43.29 7.5 41 3.8 101820 79
2004-01-21 08:19:50 51°11.196 2°43.259 7.6 316 3.8 101830 79
2004-01-21 08:19:55 51°11.189 2°43.227 7.6 315 3.8 101830 79
2004-01-21 08:19:59 51°11.184 2°43.202 7.1 316 3.8 101820 79
2004-01-21 08:20:05 51°11.176 2°43.165 7.3 315 3.8 101820 79
2004-01-21 08:20:10 51°11.169 2°43.134 7.8 317 3.8 101820 79
2004-01-21 08:20:15 51°11.163 2°43.103 7.4 320 3.8 101820 79
2004-01-21 08:20:20 51°11.156 2°43.072 7.6 42 3.8 101820 79
2004-01-21 08:20:25 51°11.15 2°43.041 7.1 321 3.8 101820 79
2004-01-21 08:20:30 51°11.143 2°43.01 7.6 318 3.8 101820 79
2004-01-21 08:20:35 51°11.137 2°42.978 7.9 322 3.8 101820 79
2004-01-21 08:20:40 51°11.13 2°42.947 8.6 315 3.8 101810 79
2004-01-21 08:20:45 51°11.124 2°42.916 8.1 317 3.8 101810 79
2004-01-21 08:20:50 51°11.117 2°42.885 8.1 318 3.8 101820 79
2004-01-21 08:20:55 51°11.11 2°42.854 7.5 316 3.8 101820 79
2004-01-21 08:20:59 51°11.104 2°42.83 7.9 318 3.8 101820 79
2004-01-21 08:21:05 51°11.096 2°42.792 7.7 228 3.8 101820 79
2004-01-21 08:21:09 51°11.09 2°42.768 7.5 227 3.8 101810 79
2004-01-21 08:21:15 51°11.082 2°42.731 7.6 316 3.8 101810 79
2004-01-21 08:21:20 51°11.074 2°42.7 7.3 316 3.8 101820 79
2004-01-21 08:21:23 51°11.07 2°42.682 7 321 3.8 101820 79
2004-01-21 08:21:28 51°11.063 2°42.651 7.9 318 3.8 101820 79
2004-01-21 08:21:35 51°11.053 2°42.608 8.2 318 3.8 101820 79
2004-01-21 08:21:39 51°11.047 2°42.583 7.8 321 3.8 101820 79
2004-01-21 08:21:45 51°11.039 2°42.546 8.1 227 3.8 101820 79
2004-01-21 08:21:50 51°11.032 2°42.515 7.1 41 3.8 101820 79
2004-01-21 08:21:55 51°11.027 2°42.484 6.8 317 3.8 101820 79
2004-01-21 08:21:59 51°11.024 2°42.458 6.6 319 3.8 101780 79
2004-01-21 08:22:03 51°11.022 2°42.432 6.1 227 3.8 101780 79
2004-01-21 08:22:10 51°11.023 2°42.387 5.2 302 3.8 101790 79
2004-01-21 08:22:15 51°11.026 2°42.358 4.6 294 3.8 101790 79
2004-01-21 08:22:19 51°11.029 2°42.337 3.8 286 3.8 101790 79
2004-01-21 08:22:25 51°11.036 2°42.307 2.7 262 3.8 101790 79
2004-01-21 08:22:30 51°11.042 2°42.285 2.6 243 3.8 101790 79
2004-01-21 08:22:35 51°11.05 2°42.266 2.3 195 3.8 101790 79
2004-01-21 08:22:39 51°11.057 2°42.253 2.3 176 3.8 101830 79
2004-01-21 08:22:43 51°11.064 2°42.242 2.6 154 3.8 101830 79
2004-01-21 08:22:50 51°11.076 2°42.226 3.1 144 3.8 101830 79
2004-01-21 08:22:55 51°11.085 2°42.219 4.1 129 3.8 101830 79
2004-01-21 08:23:00 51°11.093 2°42.213 4.5 122 3.8 101840 79
2004-01-21 08:23:04 51°11.1 2°42.21 4.8 119 3.8 101840 79
2004-01-21 08:23:10 51°11.109 2°42.209 5.7 122 3.8 101830 79
2004-01-21 08:23:15 51°11.117 2°42.209 4.9 106 3.8 101830 79
2004-01-21 08:23:19 51°11.122 2°42.209 5.2 113 3.8 101830 79
2004-01-21 08:23:25 51°11.13 2°42.211 6.2 115 3.8 101830 79
2004-01-21 08:23:29 51°11.134 2°42.213 5.7 108 3.8 101830 80
2004-01-21 08:23:35 51°11.14 2°42.216 6.2 98 3.8 101830 80
2004-01-21 08:23:39 51°11.144 2°42.218 6.5 96 3.8 101840 80
2004-01-21 08:23:44 51°11.148 2°42.222 6.1 96 3.8 101840 80
2004-01-21 08:23:47 51°11.15 2°42.223 6.6 98 3.8 101830 80
2004-01-21 08:23:55 51°11.156 2°42.228 6.4 100 3.8 101830 80
2004-01-21 08:23:59 51°11.158 2°42.23 6.1 104 3.8 101830 80
2004-01-21 08:24:03 51°11.16 2°42.231 5.9 110 3.8 101830 80
2004-01-21 08:24:09 51°11.163 2°42.232 5.8 115 3.8 101830 80
2004-01-21 08:24:15 51°11.165 2°42.233 6 124 3.8 101830 80
2004-01-21 08:24:19 51°11.166 2°42.233 5.7 124 3.8 101820 80
2004-01-21 08:24:23 51°11.167 2°42.233 5.2 121 3.8 101820 80
2004-01-21 08:24:29 51°11.168 2°42.232 5.3 116 3.8 101820 80
2004-01-21 08:24:35 51°11.169 2°42.231 5.8 131 3.8 101820 80
2004-01-21 08:24:39 51°11.169 2°42.23 5.3 131 3.8 101830 80
2004-01-21 08:24:45 51°11.17 2°42.229 5.7 130 3.8 101830 80
2004-01-21 08:24:50 51°11.171 2°42.228 5.3 129 3.8 101830 80
2004-01-21 08:24:55 51°11.172 2°42.228 5.1 134 3.8 101830 80
2004-01-21 08:24:59 51°11.173 2°42.227 5.5 123 3.8 101840 80
2004-01-21 08:25:05 51°11.174 2°42.226 5.8 126 3.8 101840 80
2004-01-21 08:25:09 51°11.175 2°42.225 5.6 125 3.8 101840 80
2004-01-21 08:25:15 51°11.177 2°42.225 6 129 3.8 101840 80
2004-01-21 08:25:19 51°11.178 2°42.224 6.2 110 3.9 101840 80
2004-01-21 08:25:24 51°11.179 2°42.224 5.5 123 3.9 101840 80
2004-01-21 08:25:29 51°11.18 2°42.223 6.5 115 3.9 101840 80
2004-01-21 08:25:35 51°11.181 2°42.222 6.3 120 3.9 101840 80
2004-01-21 08:25:39 51°11.181 2°42.222 6.7 121 3.9 101840 80
2004-01-21 08:25:43 51°11.182 2°42.221 6.6 123 3.9 101840 80
2004-01-21 08:25:49 51°11.183 2°42.22 6 121 3.9 101840 80
2004-01-21 08:25:55 51°11.184 2°42.219 6.4 119 3.9 101840 80
2004-01-21 08:26:00 51°11.184 2°42.218 5.7 121 3.9 101840 80
2004-01-21 08:26:03 51°11.184 2°42.218 4.8 124 3.9 101840 80
2004-01-21 08:26:09 51°11.185 2°42.216 5.5 114 3.9 101840 80
2004-01-21 08:26:15 51°11.185 2°42.215 5.4 117 3.9 101840 80
2004-01-21 08:26:20 51°11.185 2°42.214 5.9 113 3.9 101840 80
2004-01-21 08:26:23 51°11.185 2°42.213 5.6 114 3.9 101840 80
2004-01-21 08:26:29 51°11.185 2°42.211 5.6 116 3.9 101840 80
2004-01-21 08:26:35 51°11.184 2°42.209 5.6 118 3.9 101840 80
2004-01-21 08:26:39 51°11.184 2°42.208 5.5 122 3.9 101840 80
2004-01-21 08:26:43 51°11.183 2°42.206 5.7 113 3.9 101840 80
2004-01-21 08:26:49 51°11.182 2°42.203 6.1 115 3.9 101840 80
2004-01-21 08:26:55 51°11.181 2°42.201 5.4 116 3.9 101840 80
2004-01-21 08:26:59 51°11.18 2°42.198 6.4 122 3.9 101840 81
2004-01-21 08:27:05 51°11.179 2°42.195 6.4 118 3.9 101840 81
2004-01-21 08:27:08 51°11.178 2°42.193 6.6 124 4 101850 81
2004-01-21 08:27:15 51°11.176 2°42.189 6 127 4 101850 81
2004-01-21 08:27:19 51°11.175 2°42.187 6.1 126 4 101840 81
2004-01-21 08:27:25 51°11.173 2°42.184 6.4 128 4 101840 81
2004-01-21 08:27:30 51°11.172 2°42.18 5.7 126 4 101840 81
2004-01-21 08:27:35 51°11.17 2°42.177 7.7 128 4 101840 81
2004-01-21 08:27:40 51°11.168 2°42.174 7.2 129 4 101850 80
2004-01-21 08:27:45 51°11.166 2°42.171 6.7 127 4 101850 80
2004-01-21 08:27:49 51°11.165 2°42.168 6.4 131 3.9 101840 80
2004-01-21 08:27:55 51°11.162 2°42.165 6.7 131 3.9 101840 80
2004-01-21 08:27:59 51°11.16 2°42.162 6.6 133 3.9 101840 80
2004-01-21 08:28:05 51°11.158 2°42.158 7.3 134 3.9 101840 80
2004-01-21 08:28:09 51°11.156 2°42.156 7 133 3.9 101840 80
2004-01-21 08:28:15 51°11.154 2°42.152 6.1 132 3.9 101840 80
2004-01-21 08:28:19 51°11.152 2°42.15 7.1 134 3.8 101840 79
2004-01-21 08:28:25 51°11.151 2°42.147 6 133 3.8 101840 79
2004-01-21 08:28:29 51°11.151 2°42.147 6.8 136 3.8 101850 79
2004-01-21 08:28:35 51°11.152 2°42.145 6.1 133 3.8 101850 79
2004-01-21 08:28:39 51°11.152 2°42.144 6 132 3.8 101840 80
2004-01-21 08:28:43 51°11.153 2°42.143 5.5 130 3.8 101840 80
2004-01-21 08:28:49 51°11.154 2°42.142 5.7 131 3.8 101850 80
2004-01-21 08:28:55 51°11.155 2°42.14 5.9 132 3.8 101850 80
2004-01-21 08:29:00 51°11.156 2°42.139 5 132 3.8 101840 79
2004-01-21 08:29:04 51°11.157 2°42.138 5.2 129 3.8 101840 79
2004-01-21 08:29:10 51°11.157 2°42.137 5.6 135 3.8 101850 80
2004-01-21 08:29:15 51°11.158 2°42.136 5.9 122 3.8 101850 80
2004-01-21 08:29:19 51°11.159 2°42.135 5.8 123 3.8 101850 80
2004-01-21 08:29:25 51°11.16 2°42.134 6.2 123 3.8 101850 80
2004-01-21 08:29:30 51°11.16 2°42.133 5.5 129 3.8 101850 80
2004-01-21 08:29:35 51°11.161 2°42.132 6 131 3.8 101850 80
2004-01-21 08:29:39 51°11.162 2°42.132 5.9 125 3.8 101850 80
2004-01-21 08:29:43 51°11.162 2°42.131 6.4 131 3.8 101850 80
2004-01-21 08:29:50 51°11.163 2°42.13 6.8 129 3.8 101850 80
2004-01-21 08:29:55 51°11.164 2°42.129 7 126 3.8 101850 80
2004-01-21 08:30:00 51°11.165 2°42.128 6.5 127 3.8 101850 80
2004-01-21 08:30:05 51°11.165 2°42.127 6.3 126 3.8 101850 80
2004-01-21 08:30:10 51°11.166 2°42.126 6.7 126 3.8 101850 80
2004-01-21 08:30:15 51°11.166 2°42.126 6.1 126 3.8 101850 80
2004-01-21 08:30:19 51°11.167 2°42.125 5.8 127 3.8 101850 80
2004-01-21 08:30:25 51°11.167 2°42.124 6.1 124 3.8 101850 80
2004-01-21 08:30:29 51°11.168 2°42.123 5.3 118 3.8 101850 79
2004-01-21 08:30:35 51°11.169 2°42.122 4.5 115 3.8 101850 79
2004-01-21 08:30:39 51°11.169 2°42.122 5.7 116 3.8 101850 79
2004-01-21 08:30:43 51°11.17 2°42.121 5.5   3.8 101850 79
2004-01-21 08:30:49 51°11.17 2°42.12 5.2 108 3.8 101850 80
2004-01-21 08:30:55 51°11.171 2°42.119 5.7 116 3.8 101850 80
2004-01-21 08:31:00 51°11.172 2°42.118 6 116 3.8 101850 80
2004-01-21 08:31:04 51°11.173 2°42.118 5.7 113 3.8 101850 80
2004-01-21 08:31:10 51°11.174 2°42.118 6 110 3.8 101850 80
2004-01-21 08:31:15 51°11.175 2°42.117 5.3 108 3.8 101850 80
2004-01-21 08:31:19 51°11.175 2°42.117 5.2 108 3.8 101850 80
2004-01-21 08:31:25 51°11.175 2°42.117 6 105 3.8 101850 80
2004-01-21 08:31:30 51°11.175 2°42.117 5.7 113 3.8 101850 80
2004-01-21 08:31:35 51°11.175 2°42.117 6.2 113 3.8 101850 80
2004-01-21 08:31:39 51°11.175 2°42.117 5.9 110 3.8 101850 80
2004-01-21 08:31:43 51°11.176 2°42.117 6.4 115 3.8 101850 80
2004-01-21 08:31:49 51°11.176 2°42.117 6.4 115 3.8 101850 80
2004-01-21 08:31:55 51°11.177 2°42.117 6.1 111 3.8 101850 80
2004-01-21 08:31:59 51°11.177 2°42.117 6 112 3.8 101850 80
2004-01-21 08:32:03 51°11.178 2°42.117 6.4 118 3.8 101850 80
2004-01-21 08:32:10 51°11.179 2°42.117 7.2 117 3.8 101850 80
2004-01-21 08:32:15 51°11.179 2°42.117 5.9 96 3.8 101850 80
2004-01-21 08:32:20 51°11.18 2°42.117 6.3 95 3.8 101850 80
2004-01-21 08:32:23 51°11.18 2°42.117 5.8 95 3.8 101850 80
2004-01-21 08:32:30 51°11.181 2°42.117 5.7 94 3.8 101850 80
2004-01-21 08:32:35 51°11.182 2°42.117 5.7 99 3.8 101850 80
2004-01-21 08:32:39 51°11.182 2°42.117 6.3 94 3.8 101850 80
2004-01-21 08:32:45 51°11.183 2°42.117 6.2 94 3.8 101850 80
2004-01-21 08:32:49 51°11.184 2°42.118 6.5 92 3.9 101850 80
2004-01-21 08:32:55 51°11.184 2°42.118 6.2 93 3.9 101850 80
2004-01-21 08:33:00 51°11.185 2°42.118 5.6 95 3.9 101850 80
2004-01-21 08:33:05 51°11.185 2°42.119 6 104 3.9 101850 80
2004-01-21 08:33:08 51°11.186 2°42.119 5.8 101 3.8 101850 80
2004-01-21 08:33:15 51°11.187 2°42.119 5.5 99 3.8 101850 80
2004-01-21 08:33:19 51°11.187 2°42.12 5.8 105 3.8 101860 80
2004-01-21 08:33:25 51°11.188 2°42.12 5.8 105 3.8 101860 80
2004-01-21 08:33:29 51°11.189 2°42.12 5.5 92 3.8 101850 80
2004-01-21 08:33:33 51°11.189 2°42.121 5 94 3.8 101850 80
2004-01-21 08:33:40 51°11.19 2°42.122 6.4 85 3.8 101850 80
2004-01-21 08:33:44 51°11.19 2°42.122 6.4 89 3.8 101850 80
2004-01-21 08:33:47 51°11.191 2°42.122 6.7 89 3.8 101860 80
2004-01-21 08:33:55 51°11.192 2°42.124 7.4 87 3.8 101860 80
2004-01-21 08:33:59 51°11.192 2°42.124 6.8 85 3.9 101850 80
2004-01-21 08:34:03 51°11.193 2°42.125 6.7 89 3.9 101850 80
2004-01-21 08:34:10 51°11.193 2°42.126 7.6 88 3.9 101850 80
2004-01-21 08:34:15 51°11.194 2°42.126 6.4 97 3.9 101850 80
2004-01-21 08:34:19 51°11.194 2°42.127 7.4 91 3.9 101850 80
2004-01-21 08:34:25 51°11.195 2°42.128 7.5 95 3.9 101850 80
2004-01-21 08:34:30 51°11.195 2°42.129 7.5 90 3.9 101850 80
2004-01-21 08:34:35 51°11.196 2°42.129 8.2 93 3.9 101850 80
2004-01-21 08:34:39 51°11.196 2°42.13 7 81 3.8 101850 80
2004-01-21 08:34:45 51°11.197 2°42.131 7.4 83 3.8 101850 80
2004-01-21 08:34:50 51°11.198 2°42.131 7.4 85 3.8 101850 80
2004-01-21 08:34:55 51°11.198 2°42.132 7.5 87 3.8 101850 80
2004-01-21 08:34:59 51°11.199 2°42.133 7.6 82 3.8 101850 80
2004-01-21 08:35:03 51°11.199 2°42.133 7.8 90 3.8 101850 80
2004-01-21 08:35:10 51°11.2 2°42.134 6.8 93 3.8 101850 79
2004-01-21 08:35:13 51°11.201 2°42.135 7.3 91 3.8 101850 79
2004-01-21 08:35:19 51°11.201 2°42.136 6.5 93 3.8 101850 79
2004-01-21 08:35:24 51°11.202 2°42.137 7.1 90 3.8 101850 79
2004-01-21 08:35:30 51°11.202 2°42.138 7.4 89 3.8 101850 79
2004-01-21 08:35:35 51°11.203 2°42.138 6.7 86 3.8 101850 79
2004-01-21 08:35:40 51°11.204 2°42.139 6.7 88 3.8 101850 79
2004-01-21 08:35:45 51°11.204 2°42.14 6.8 97 3.8 101850 79
2004-01-21 08:35:49 51°11.204 2°42.141 6.7 90 3.8 101850 79
2004-01-21 08:35:55 51°11.205 2°42.142 6.8 89 3.8 101850 79
2004-01-21 08:36:00 51°11.205 2°42.143 5.1 76 3.8 101850 79
2004-01-21 08:36:05 51°11.206 2°42.144 5.6 78 3.8 101850 79
2004-01-21 08:36:08 51°11.206 2°42.145 5.7 80 3.8 101850 79
2004-01-21 08:36:15 51°11.207 2°42.146 6.7 82 3.8 101850 79
2004-01-21 08:36:19 51°11.207 2°42.147 5.7 80 3.8 101850 79
2004-01-21 08:36:25 51°11.207 2°42.149 5.5 78 3.8 101850 79
2004-01-21 08:36:29 51°11.208 2°42.15 4.8 73 3.8 101850 80
2004-01-21 08:36:35 51°11.208 2°42.151 5.6 70 3.8 101850 80
2004-01-21 08:36:39 51°11.208 2°42.152 5.2 75 3.8 101850 79
2004-01-21 08:36:44 51°11.209 2°42.153 6.1 79 3.8 101850 79
2004-01-21 08:36:50 51°11.209 2°42.155 4.7 78 3.8 101860 79
2004-01-21 08:36:55 51°11.209 2°42.156 6.1 67 3.8 101860 79
2004-01-21 08:36:59 51°11.209 2°42.158 6.2 72 3.8 101850 79
2004-01-21 08:37:04 51°11.209 2°42.161 6.7 54 3.8 101850 79
2004-01-21 08:37:09 51°11.209 2°42.164 7 56 3.8 101850 79
2004-01-21 08:37:15 51°11.209 2°42.168 6.6 46 3.8 101850 79
2004-01-21 08:37:19 51°11.209 2°42.171 7.5 38 3.8 101850 79
2004-01-21 08:37:25 51°11.207 2°42.178 7.2 30 3.8 101850 79
2004-01-21 08:37:27 51°11.207 2°42.18 7.3 26 3.8 101840 79
2004-01-21 08:37:35 51°11.203 2°42.191 8.2 18 3.8 101840 79
2004-01-21 08:37:40 51°11.2 2°42.197 8.1 18 3.8 101850 79
2004-01-21 08:37:45 51°11.196 2°42.203 7.9 8 3.8 101850 79
2004-01-21 08:37:47 51°11.194 2°42.206 8.3 1 3.8 101850 79
2004-01-21 08:37:55 51°11.185 2°42.214 8.6 355 3.8 101850 79
2004-01-21 08:37:59 51°11.18 2°42.217 8.9 344 3.8 101850 79
2004-01-21 08:38:05 51°11.171 2°42.221 9.3 340 3.8 101850 79
2004-01-21 08:38:09 51°11.165 2°42.221 8.4 334 3.8 101850 79
2004-01-21 08:38:15 51°11.156 2°42.221 8.2 329 3.8 101850 79
2004-01-21 08:38:19 51°11.15 2°42.219 7.5 327 3.8 101830 79
2004-01-21 08:38:25 51°11.141 2°42.214 8.2 328 3.8 101830 79
2004-01-21 08:38:30 51°11.134 2°42.208 8.1 41 3.8 101820 79
2004-01-21 08:38:35 51°11.127 2°42.201 7.9 311 3.8 101820 79
2004-01-21 08:38:39 51°11.122 2°42.193 8.1 301 3.8 101820 79
2004-01-21 08:38:45 51°11.115 2°42.181 7.5 296 3.8 101820 79
2004-01-21 08:38:50 51°11.11 2°42.169 7.3 284 3.8 101820 79
2004-01-21 08:38:55 51°11.106 2°42.156 7 275 3.8 101820 79
2004-01-21 08:39:00 51°11.103 2°42.142 7 271 3.8 101810 79
2004-01-21 08:39:05 51°11.101 2°42.128 6.5 273 3.8 101810 79
2004-01-21 08:39:07 51°11.099 2°42.122 5.2 279 3.8 101850 79
2004-01-21 08:39:15 51°11.094 2°42.095 5.9 286 3.8 101850 79
2004-01-21 08:39:20 51°11.091 2°42.075 5.7 285 3.8 101820 79
2004-01-21 08:39:23 51°11.089 2°42.063 6.1 301 3.8 101820 79
2004-01-21 08:39:29 51°11.085 2°42.035 6.2 302 3.8 101820 79
2004-01-21 08:39:35 51°11.081 2°42.005 5.9 307 3.8 101820 79
2004-01-21 08:39:39 51°11.077 2°41.983 7.1 296 3.8 101800 79
2004-01-21 08:39:43 51°11.074 2°41.962 7.3 300 3.8 101800 79
2004-01-21 08:39:49 51°11.069 2°41.928 7.2 41 3.9 101790 80
2004-01-21 08:39:55 51°11.063 2°41.893 7.4 314 3.9 101790 80
2004-01-21 08:39:59 51°11.06 2°41.869 7.6 42 3.9 101790 80
2004-01-21 08:40:05 51°11.054 2°41.834 7.1 314 3.9 101790 80
2004-01-21 08:40:08 51°11.051 2°41.816 7.2 310 3.9 101780 80
2004-01-21 08:40:15 51°11.045 2°41.773 8 228 3.9 101780 80
2004-01-21 08:40:19 51°11.041 2°41.749 8.5 313 3.9 101790 80
2004-01-21 08:40:25 51°11.036 2°41.712 8.1 308 3.9 101790 80
2004-01-21 08:40:30 51°11.031 2°41.681 8 307 3.9 101790 80
2004-01-21 08:40:35 51°11.026 2°41.651 7.4 306 3.9 101790 80
2004-01-21 08:40:40 51°11.022 2°41.62 7.2 308 3.9 101790 80
2004-01-21 08:40:45 51°11.017 2°41.589 7.1 308 3.9 101790 80
2004-01-21 08:40:49 51°11.013 2°41.565 8.1 312 3.9 101790 80
2004-01-21 08:40:55 51°11.008 2°41.527 7.9 310 3.9 101790 80
2004-01-21 08:41:00 51°11.003 2°41.496 8.7 306 3.9 101790 79
2004-01-21 08:41:05 51°10.998 2°41.465 7.9 309 3.9 101790 79
2004-01-21 08:41:10 51°10.994 2°41.434 8 228 3.9 101790 79
2004-01-21 08:41:15 51°10.989 2°41.403 7.6 314 3.9 101790 79
2004-01-21 08:41:19 51°10.985 2°41.378 8.2 314 3.9 101790 79
2004-01-21 08:41:25 51°10.98 2°41.341 8 311 3.9 101790 79
2004-01-21 08:41:30 51°10.975 2°41.31 7.3 309 3.9 101790 79
2004-01-21 08:41:35 51°10.971 2°41.279 7.7 311 3.9 101790 79
2004-01-21 08:41:40 51°10.966 2°41.248 7.4 312 3.9 101790 79
2004-01-21 08:41:45 51°10.962 2°41.217 6.6 312 3.9 101790 79
2004-01-21 08:41:50 51°10.958 2°41.186 6.7 310 3.9 101790 79
2004-01-21 08:41:55 51°10.952 2°41.154 7.1 312 3.9 101790 79
2004-01-21 08:41:59 51°10.949 2°41.129 6.7 314 3.9 101790 79
2004-01-21 08:42:05 51°10.943 2°41.092 6.3 313 3.9 101790 79
2004-01-21 08:42:10 51°10.938 2°41.061 6.8 312 3.9 101790 79
2004-01-21 08:42:15 51°10.934 2°41.03 6.8 310 3.9 101790 79
2004-01-21 08:42:20 51°10.929 2°40.999 7.4 314 3.9 101790 79
2004-01-21 08:42:23 51°10.927 2°40.98 6.9 315 3.9 101790 79
2004-01-21 08:42:29 51°10.921 2°40.943 7.8 313 3.9 101800 79
2004-01-21 08:42:35 51°10.916 2°40.906 7.4 305 3.9 101800 79
2004-01-21 08:42:39 51°10.912 2°40.881 6.1 304 3.9 101790 79
2004-01-21 08:42:43 51°10.908 2°40.856 6.2 304 3.9 101790 79
2004-01-21 08:42:49 51°10.902 2°40.818 7 311 3.9 101790 79
2004-01-21 08:42:55 51°10.896 2°40.781 7.8 312 3.9 101790 79
2004-01-21 08:42:59 51°10.892 2°40.756 8.1 312 3.9 101800 79
2004-01-21 08:43:03 51°10.888 2°40.732 8.4 311 3.9 101800 79
2004-01-21 08:43:08 51°10.882 2°40.701 7.8 226 3.9 101800 79
2004-01-21 08:43:15 51°10.875 2°40.657 7.9 306 3.9 101800 79
2004-01-21 08:43:19 51°10.871 2°40.632 7.8 311 3.9 101800 79
2004-01-21 08:43:25 51°10.864 2°40.596 8.5 311 3.9 101800 79
2004-01-21 08:43:29 51°10.86 2°40.571 7.6 306 3.9 101790 79
2004-01-21 08:43:35 51°10.854 2°40.533 7.6 306 3.9 101790 79
2004-01-21 08:43:39 51°10.85 2°40.509 9 309 3.9 101790 79
2004-01-21 08:43:45 51°10.844 2°40.471 8.4   3.9 101790 79
2004-01-21 08:43:50 51°10.838 2°40.44 7.2 228 3.9 101790 79
2004-01-21 08:43:55 51°10.833 2°40.409 7.2 314 3.9 101790 79
2004-01-21 08:43:59 51°10.829 2°40.385 7.7 309 3.9 101790 79
2004-01-21 08:44:05 51°10.822 2°40.347 8.2 311 3.9 101790 79
2004-01-21 08:44:08 51°10.819 2°40.329 9.3 228 3.9 101790 79
2004-01-21 08:44:13 51°10.814 2°40.298 9.6 308 3.9 101790 79
2004-01-21 08:44:19 51°10.808 2°40.26 9.4 302 3.9 101790 79
2004-01-21 08:44:25 51°10.802 2°40.223 8.2 312 3.9 101790 79
2004-01-21 08:44:30 51°10.796 2°40.192 8.8 310 3.9 101790 79
2004-01-21 08:44:35 51°10.791 2°40.161 7.4 310 3.9 101790 79
2004-01-21 08:44:39 51°10.787 2°40.137 8.1 308 3.9 101780 79
2004-01-21 08:44:45 51°10.78 2°40.099 7.4 308 3.9 101780 79
2004-01-21 08:44:50 51°10.775 2°40.068 8.5 312 3.9 101790 78
2004-01-21 08:44:55 51°10.77 2°40.037 7.7 303 3.9 101790 78
2004-01-21 08:45:00 51°10.765 2°40.006 8.5 310 3.9 101790 78
2004-01-21 08:45:05 51°10.76 2°39.975 7.6 306 3.9 101790 78
2004-01-21 08:45:07 51°10.758 2°39.963 7.1 315 3.9 101790 79
2004-01-21 08:45:15 51°10.749 2°39.913 8.5 227 3.9 101790 79
2004-01-21 08:45:20 51°10.744 2°39.882 7.8 314 3.9 101790 78
2004-01-21 08:45:23 51°10.741 2°39.863 8.2 311 3.9 101790 78
2004-01-21 08:45:29 51°10.735 2°39.826 7.9 306 3.9 101790 78
2004-01-21 08:45:35 51°10.729 2°39.789 7.6 305 3.9 101790 78
2004-01-21 08:45:39 51°10.725 2°39.764 8.2 310 3.9 101790 78
2004-01-21 08:45:43 51°10.72 2°39.739 7.7 306 3.9 101790 78
2004-01-21 08:45:49 51°10.714 2°39.702 9.7 306 3.9 101790 78
2004-01-21 08:45:55 51°10.708 2°39.665 8.6 302 3.9 101790 78
2004-01-21 08:46:00 51°10.703 2°39.633 8.3 314 3.8 101790 78
2004-01-21 08:46:04 51°10.698 2°39.608 7.9 311 3.8 101790 78
2004-01-21 08:46:09 51°10.693 2°39.577 8 308 3.9 101790 78
2004-01-21 08:46:15 51°10.687 2°39.54 8.7 305 3.9 101790 78
2004-01-21 08:46:19 51°10.683 2°39.515 8.4 305 3.9 101790 78
2004-01-21 08:46:25 51°10.676 2°39.477 7.6 304 3.9 101790 78
2004-01-21 08:46:29 51°10.672 2°39.453 8.2 314 3.9 101780 78
2004-01-21 08:46:35 51°10.666 2°39.415 8.7 306 3.9 101780 78
2004-01-21 08:46:39 51°10.662 2°39.39 8.7 310 3.8 101790 78
2004-01-21 08:46:43 51°10.657 2°39.365 8.2 313 3.8 101790 78
2004-01-21 08:46:49 51°10.651 2°39.328 7.9 314 3.9 101790 78
2004-01-21 08:46:55 51°10.645 2°39.29 8 307 3.9 101790 78
2004-01-21 08:46:59 51°10.641 2°39.265 8.4 303 3.9 101790 78
2004-01-21 08:47:03 51°10.637 2°39.24 7.4 307 3.9 101790 78
2004-01-21 08:47:08 51°10.632 2°39.209 7.1 302 3.9 101790 78
2004-01-21 08:47:15 51°10.624 2°39.165 7.8 312 3.9 101790 78
2004-01-21 08:47:19 51°10.62 2°39.14 8.7 313 3.9 101780 78
2004-01-21 08:47:25 51°10.613 2°39.103 7.8 308 3.9 101780 78
2004-01-21 08:47:30 51°10.608 2°39.072 8.1 307 3.9 101790 78
2004-01-21 08:47:35 51°10.603 2°39.041 7.8 311 3.9 101790 78
2004-01-21 08:47:39 51°10.599 2°39.016 7.6 311 3.9 101780 78
2004-01-21 08:47:45 51°10.593 2°38.979 8.2 311 3.9 101780 78
2004-01-21 08:47:49 51°10.589 2°38.954 8.1 228 3.9 101780 78
2004-01-21 08:47:55 51°10.582 2°38.917 7.7 310 3.9 101780 78
2004-01-21 08:47:59 51°10.578 2°38.892 8.9 313 3.9 101790 78
2004-01-21 08:48:03 51°10.574 2°38.867 8.7 307 3.9 101790 78
2004-01-21 08:48:08 51°10.568 2°38.836 8.2 302 3.9 101780 77
2004-01-21 08:48:15 51°10.561 2°38.793 8.8 302 3.9 101780 77
2004-01-21 08:48:19 51°10.557 2°38.768 8.7 302 3.9 101780 78
2004-01-21 08:48:25 51°10.551 2°38.731 7.7 305 3.9 101780 78
2004-01-21 08:48:30 51°10.546 2°38.7 8.2 313 3.9 101780 78
2004-01-21 08:48:35 51°10.541 2°38.669 7.5 42 3.9 101780 78
2004-01-21 08:48:40 51°10.536 2°38.638 8.2 312 3.9 101780 77
2004-01-21 08:48:45 51°10.53 2°38.607 7.7 307 3.9 101780 77
2004-01-21 08:48:48 51°10.528 2°38.589 7.6 308 3.9 101780 77
2004-01-21 08:48:55 51°10.52 2°38.546 8.7 308 3.9 101780 77
2004-01-21 08:48:59 51°10.516 2°38.521 8.5 301 3.9 101780 77
2004-01-21 08:49:05 51°10.511 2°38.485 9.6 298 3.9 101780 77
2004-01-21 08:49:09 51°10.506 2°38.46 6.9 303 3.9 101780 77
2004-01-21 08:49:15 51°10.5 2°38.423 8.3 305 3.9 101780 77
2004-01-21 08:49:19 51°10.495 2°38.399 9.1 303 3.9 101790 77
2004-01-21 08:49:25 51°10.488 2°38.363 7.9 304 3.9 101790 77
2004-01-21 08:49:30 51°10.482 2°38.332 8.5 313 3.9 101790 77
2004-01-21 08:49:35 51°10.476 2°38.302 8.6 232 3.9 101790 77
2004-01-21 08:49:39 51°10.472 2°38.277 9.6 44 3.9 101780 77
2004-01-21 08:49:43 51°10.467 2°38.253 9.6 308 3.9 101780 77
2004-01-21 08:49:49 51°10.46 2°38.217 9 306 3.9 101780 77
2004-01-21 08:49:55 51°10.454 2°38.18 8.6 306 3.9 101780 77
2004-01-21 08:50:00 51°10.448 2°38.15 8.3 302 3.9 101780 77
2004-01-21 08:50:04 51°10.444 2°38.125 9.1 304 3.9 101780 77
2004-01-21 08:50:09 51°10.438 2°38.095 8 312 3.9 101780 77
2004-01-21 08:50:15 51°10.431 2°38.059 4.4 308 3.9 101780 77
2004-01-21 08:50:19 51°10.426 2°38.035 9.5 312 3.9 101780 77
2004-01-21 08:50:25 51°10.419 2°37.999 9 308 3.9 101780 77
2004-01-21 08:50:29 51°10.415 2°37.975 9 306 3.9 101780 77
2004-01-21 08:50:35 51°10.408 2°37.939 8.3 304 3.9 101780 77
2004-01-21 08:50:39 51°10.403 2°37.914 8.5 307 3.9 101780 77
2004-01-21 08:50:43 51°10.399 2°37.89 8.6 309 3.9 101780 77
2004-01-21 08:50:49 51°10.391 2°37.854 9.1 307 3.9 101780 77
2004-01-21 08:50:55 51°10.385 2°37.818 8.6 307 3.9 101780 77
2004-01-21 08:51:00 51°10.379 2°37.788 9.1 299 3.9 101780 77
2004-01-21 08:51:04 51°10.374 2°37.764 7.7 311 3.9 101780 77
2004-01-21 08:51:09 51°10.368 2°37.734 8.4 309 3.9 101780 77
2004-01-21 08:51:15 51°10.361 2°37.698 9.2 314 3.9 101780 77
2004-01-21 08:51:19 51°10.356 2°37.674 9.6 311 3.9 101780 77
2004-01-21 08:51:25 51°10.35 2°37.638 9.7 311 3.9 101780 77
2004-01-21 08:51:29 51°10.345 2°37.614 8.2 302 4 101780 77
2004-01-21 08:51:35 51°10.338 2°37.578 8.7 305 4 101780 77
2004-01-21 08:51:40 51°10.332 2°37.548 8.3 306 3.9 101780 77
2004-01-21 08:51:45 51°10.326 2°37.518 7.4 305 3.9 101780 77
2004-01-21 08:51:47 51°10.324 2°37.506 9.6 309 3.9 101780 78
2004-01-21 08:51:55 51°10.316 2°37.457 8.1 308 3.9 101780 78
2004-01-21 08:51:59 51°10.311 2°37.433 8.7 306 3.9 101780 77
2004-01-21 08:52:05 51°10.304 2°37.397 8 308 3.9 101780 77
2004-01-21 08:52:10 51°10.298 2°37.368 8.7 312 4 101790 78
2004-01-21 08:52:15 51°10.293 2°37.338 8.2 314 4 101790 78
2004-01-21 08:52:20 51°10.287 2°37.308 8.5 306 3.9 101790 77
2004-01-21 08:52:23 51°10.284 2°37.29 8.2 309 3.9 101790 77
2004-01-21 08:52:30 51°10.276 2°37.248 8.3 312 3.9 101790 77
2004-01-21 08:52:35 51°10.27 2°37.218 9 301 3.9 101790 77
2004-01-21 08:52:39 51°10.265 2°37.194 8.4 304 3.9 101780 77
2004-01-21 08:52:45 51°10.258 2°37.158 7.9   3.9 101780 77
2004-01-21 08:52:48 51°10.255 2°37.14 7.4 307 4 101780 78
2004-01-21 08:52:55 51°10.247 2°37.098 8 315 4 101780 78
2004-01-21 08:52:59 51°10.243 2°37.074 7.9 310 4 101780 77
2004-01-21 08:53:05 51°10.236 2°37.039 8.5 231 4 101780 77
2004-01-21 08:53:09 51°10.232 2°37.015 8.5 310 4 101780 77
2004-01-21 08:53:15 51°10.225 2°36.979 7.7 312 4 101780 77
2004-01-21 08:53:19 51°10.221 2°36.955 7.8 312 4 101780 77
2004-01-21 08:53:25 51°10.214 2°36.919 8.4 314 4 101780 77
2004-01-21 08:53:29 51°10.209 2°36.895 8.6 310 4 101780 77
2004-01-21 08:53:35 51°10.203 2°36.86 8.8 309 4 101780 77
2004-01-21 08:53:39 51°10.198 2°36.836 8.4 306 4 101780 77
2004-01-21 08:53:45 51°10.191 2°36.8 8.3 305 4 101780 77
2004-01-21 08:53:50 51°10.185 2°36.77 9.5 310 4 101780 77
2004-01-21 08:53:55 51°10.18 2°36.741 8.7 306 4 101780 77
2004-01-21 08:54:00 51°10.174 2°36.711 8.5 305 4 101780 77
2004-01-21 08:54:03 51°10.17 2°36.693 8.2 304 4 101780 77
2004-01-21 08:54:10 51°10.163 2°36.651 9.4 301 4 101780 77
2004-01-21 08:54:15 51°10.157 2°36.621 8.3 305 4 101780 77
2004-01-21 08:54:19 51°10.152 2°36.598 7.8 315 4 101780 77
2004-01-21 08:54:23 51°10.148 2°36.574 7.9 313 4 101780 77
2004-01-21 08:54:27 51°10.143 2°36.55 9.6 308 4 101780 77
2004-01-21 08:54:35 51°10.135 2°36.501 8.9 306 4 101780 77
2004-01-21 08:54:39 51°10.13 2°36.478 10 305 4 101780 77
2004-01-21 08:54:45 51°10.123 2°36.442 8.7 300 4 101780 77
2004-01-21 08:54:47 51°10.121 2°36.43 8.4 300 4 101780 77
2004-01-21 08:54:55 51°10.112 2°36.382 8.3 304 4 101780 77
2004-01-21 08:55:00 51°10.106 2°36.352 9.3 305 3.9 101780 77
2004-01-21 08:55:04 51°10.102 2°36.328 8.9 298 3.9 101780 77
2004-01-21 08:55:09 51°10.096 2°36.298 9 299 4 101770 77
2004-01-21 08:55:15 51°10.092 2°36.261 7.8 297 4 101770 77
2004-01-21 08:55:19 51°10.09 2°36.236 6.8 294 4 101780 77
2004-01-21 08:55:25 51°10.088 2°36.199 6.6 300 4 101780 77
2004-01-21 08:55:29 51°10.087 2°36.174 6.5 295 3.9 101780 77
2004-01-21 08:55:35 51°10.086 2°36.137 6.1 294 3.9 101780 77
2004-01-21 08:55:40 51°10.086 2°36.106 6.2 289 3.9 101780 77
2004-01-21 08:55:45 51°10.088 2°36.075 5.5 288 3.9 101780 77
2004-01-21 08:55:50 51°10.09 2°36.044 5.3 289 3.9 101780 77
2004-01-21 08:55:55 51°10.094 2°36.014 4.2 284 3.9 101780 77
2004-01-21 08:56:00 51°10.099 2°35.985 3.8 290 3.9 101790 77
2004-01-21 08:56:05 51°10.105 2°35.955 3 283 3.9 101790 77
2004-01-21 08:56:09 51°10.11 2°35.933 2.8 282 3.9 101790 77
2004-01-21 08:56:15 51°10.119 2°35.899 2.4 278 3.9 101790 77
2004-01-21 08:56:19 51°10.126 2°35.877 2.3 304 3.9 101790 77
2004-01-21 08:56:23 51°10.133 2°35.856 1.6 288 3.9 101790 77
2004-01-21 08:56:29 51°10.147 2°35.827 1.3 307 3.9 101790 77
2004-01-21 08:56:35 51°10.16 2°35.799 1.4 291 3.9 101790 77
2004-01-21 08:56:40 51°10.173 2°35.776 1.2 280 3.9 101800 77
2004-01-21 08:56:45 51°10.185 2°35.754 1 289 3.9 101800 77
2004-01-21 08:56:49 51°10.195 2°35.737 1 297 3.9 101800 77
2004-01-21 08:56:55 51°10.211 2°35.711 1.6 299 3.9 101800 77
2004-01-21 08:56:59 51°10.221 2°35.694 0.9 292 4 101800 77
2004-01-21 08:57:03 51°10.232 2°35.678 0.9 251 4 101800 77
2004-01-21 08:57:09 51°10.25 2°35.657 0.5 264 4 101800 77
2004-01-21 08:57:15 51°10.269 2°35.638 0.9 25 4 101800 77
2004-01-21 08:57:20 51°10.286 2°35.625 2.6 69 4 101800 77
2004-01-21 08:57:23 51°10.296 2°35.619 3.2 71 4 101800 77
2004-01-21 08:57:27 51°10.31 2°35.611 4.5 91 4 101800 77
2004-01-21 08:57:35 51°10.338 2°35.6 4.7 92 4 101800 77
2004-01-21 08:57:40 51°10.356 2°35.594 4.2 78 4 101790 78
2004-01-21 08:57:43 51°10.368 2°35.591 6.1 90 4 101790 78
2004-01-21 08:57:48 51°10.386 2°35.587 5.7 93 4 101790 78
2004-01-21 08:57:55 51°10.411 2°35.583 6.4 88 4 101790 78
2004-01-21 08:57:59 51°10.426 2°35.583 6.6 84 4 101790 78
2004-01-21 08:58:05 51°10.447 2°35.585 7.8 85 4 101790 78
2004-01-21 08:58:10 51°10.466 2°35.589 7 92 4 101790 77
2004-01-21 08:58:15 51°10.484 2°35.594 6 80 4 101790 77
2004-01-21 08:58:19 51°10.498 2°35.599 5.6 79 4 101790 77
2004-01-21 08:58:23 51°10.512 2°35.604 7.9 83 4 101790 77
2004-01-21 08:58:30 51°10.537 2°35.614 8.3 81 4 101780 77
2004-01-21 08:58:35 51°10.554 2°35.624 8.4 80 4 101780 77
2004-01-21 08:58:40 51°10.571 2°35.636 8.1 80 4 101780 77
2004-01-21 08:58:45 51°10.587 2°35.649 7.1 74 4 101780 77
2004-01-21 08:58:50 51°10.603 2°35.662 6.5 77 4 101780 77
2004-01-21 08:58:55 51°10.619 2°35.676 8.3 69 4 101780 77
2004-01-21 08:59:00 51°10.635 2°35.69 9 67 4 101770 77
2004-01-21 08:59:05 51°10.652 2°35.705 9.4 69 4 101770 77
2004-01-21 08:59:10 51°10.667 2°35.72 9.1 66 4 101770 77
2004-01-21 08:59:15 51°10.683 2°35.735 8.5 67 4 101770 77
2004-01-21 08:59:19 51°10.696 2°35.747 9 70 4 101770 77
2004-01-21 08:59:23 51°10.709 2°35.759 8.2 77 4 101770 78
2004-01-21 08:59:30 51°10.731 2°35.78 7.8 75 4 101770 78
2004-01-21 08:59:35 51°10.747 2°35.795 7.3 79 4 101770 78
2004-01-21 08:59:39 51°10.76 2°35.807 7 74 4 101770 77
2004-01-21 08:59:45 51°10.779 2°35.825 8.2 67 4 101770 77
2004-01-21 08:59:50 51°10.795 2°35.84 8.6 73 4 101770 77
2004-01-21 08:59:55 51°10.811 2°35.856 8.2 66 4 101770 77
2004-01-21 08:59:59 51°10.823 2°35.868 8.5 63 4 101770 77
2004-01-21 09:00:05 51°10.842 2°35.886 9.6 68 4 101770 77
2004-01-21 09:00:08 51°10.852 2°35.895 8 72 4 101770 77
2004-01-21 09:00:15 51°10.874 2°35.916 8.8 66 4 101770 77
2004-01-21 09:00:19 51°10.887 2°35.928 8.6 74 4 101770 77
2004-01-21 09:00:25 51°10.906 2°35.946 8.6 75 4 101770 77
2004-01-21 09:00:30 51°10.922 2°35.961 7.5 72 4 101770 77
2004-01-21 09:00:43 51°10.963 2°36.001 9.3 73 4 101770 77
2004-01-21 09:00:49 51°10.982 2°36.019 9.5 64 4 101770 77
2004-01-21 09:00:55 51°11.001 2°36.038 9.7 67 4 101770 77
2004-01-21 09:00:59 51°11.014 2°36.05 10.4 67 4 101770 77
2004-01-21 09:01:03 51°11.026 2°36.063 8.4 78 4 101770 77
2004-01-21 09:01:10 51°11.049 2°36.084 7.6 74 4 101770 77
2004-01-21 09:01:15 51°11.064 2°36.099 9 64 4 101770 77
2004-01-21 09:01:19 51°11.077 2°36.111 9.7 64 4 101770 77
2004-01-21 09:01:23 51°11.089 2°36.124 9.8 69 4 101770 77
2004-01-21 09:01:30 51°11.111 2°36.145 10.2 66 4 101770 77
2004-01-21 09:01:35 51°11.127 2°36.161 9.4 72 4 101770 77
2004-01-21 09:01:39 51°11.14 2°36.173 9.6 70 4 101770 77
2004-01-21 09:01:45 51°11.159 2°36.192 9 75 4 101770 77
2004-01-21 09:01:50 51°11.175 2°36.207 9 74 4 101770 77
2004-01-21 09:01:55 51°11.19 2°36.222 8.2 76 4 101770 77
2004-01-21 09:02:00 51°11.206 2°36.238 7.6 77 4 101770 77
2004-01-21 09:02:04 51°11.219 2°36.25 8.8 66 4 101770 77
2004-01-21 09:02:09 51°11.234 2°36.266 8.7 73 4 101770 76
2004-01-21 09:02:13 51°11.247 2°36.278 8.7 71 4 101770 76
2004-01-21 09:02:29 51°11.298 2°36.327 9.5 60 4 101770 76
2004-01-21 09:02:31 51°11.304 2°36.334 9.9 70 4 101780 76
2004-01-21 09:02:39 51°11.329 2°36.358 8.6 72 4 101780 76
2004-01-21 09:02:43 51°11.342 2°36.371 8 77 4 101780 76
2004-01-21 09:02:49 51°11.361 2°36.39 8.1 73 4 101780 76
2004-01-21 09:02:54 51°11.376 2°36.405 8.4 73 4 101770 76
2004-01-21 09:02:59 51°11.392 2°36.421 8.2 74 4 101770 76
2004-01-21 09:03:04 51°11.408 2°36.436 7.3 74 4 101780 76
2004-01-21 09:03:09 51°11.424 2°36.452 8.4 66 4 101780 76
2004-01-21 09:03:12 51°11.433 2°36.461 9.9 68 3.9 101770 76
2004-01-21 09:03:19 51°11.455 2°36.483 8.6 70 3.9 101770 76
2004-01-21 09:03:23 51°11.468 2°36.495 9.7 69 4 101780 76
2004-01-21 09:03:29 51°11.487 2°36.513 8.9 71 4 101780 76
2004-01-21 09:03:33 51°11.499 2°36.526 8.7 71 4 101780 76
2004-01-21 09:03:39 51°11.519 2°36.545 8 75 4 101780 76
2004-01-21 09:03:44 51°11.534 2°36.56 7.8 73 4 101780 76
2004-01-21 09:03:47 51°11.543 2°36.57 8.6 75 4 101780 76
2004-01-21 09:03:54 51°11.566 2°36.591 9.1 62 4 101770 76
2004-01-21 09:03:59 51°11.581 2°36.607 9.9 58 4 101770 76
2004-01-21 09:04:03 51°11.594 2°36.619 9.7 68 4 101780 77
2004-01-21 09:04:08 51°11.61 2°36.635 8.7 73 4 101780 77
2004-01-21 09:04:14 51°11.629 2°36.653 8.2 72 4 101780 77
2004-01-21 09:04:19 51°11.644 2°36.668 10.5 59 4 101780 77
2004-01-21 09:04:23 51°11.657 2°36.681 9.9 67 4.1 101790 77
2004-01-21 09:04:28 51°11.673 2°36.696 8 71 4.1 101790 77
2004-01-21 09:04:31 51°11.682 2°36.705 8 73 4 101770 76
2004-01-21 09:04:39 51°11.707 2°36.73 9.3 74 4 101770 76
2004-01-21 09:04:43 51°11.72 2°36.743 8.9 69 4 101780 76
2004-01-21 09:04:48 51°11.736 2°36.759 9 69 4 101780 76
2004-01-21 09:04:54 51°11.755 2°36.777 8 76 4 101770 76
2004-01-21 09:04:59 51°11.77 2°36.792 9 64 4 101770 76
2004-01-21 09:05:03 51°11.783 2°36.805 10.7 62 4 101780 76
2004-01-21 09:05:07 51°11.796 2°36.817 8.9 78 4 101780 76
2004-01-21 09:05:11 51°11.808 2°36.83 8 75 4 101780 76
2004-01-21 09:05:19 51°11.834 2°36.854 9.4 67 4 101780 76
2004-01-21 09:05:23 51°11.846 2°36.866 8.8 76 4 101780 76
2004-01-21 09:05:29 51°11.865 2°36.885 8.5 75 4 101780 76
2004-01-21 09:05:33 51°11.877 2°36.898 8.2 76 4 101780 76
2004-01-21 09:05:39 51°11.896 2°36.917 8.2 80 4 101780 76
2004-01-21 09:05:43 51°11.909 2°36.93 7.3 74 4 101780 76
2004-01-21 09:05:49 51°11.928 2°36.949 8.7 66 4 101780 76
2004-01-21 09:05:51 51°11.934 2°36.955 8.9 66 4 101770 76
2004-01-21 09:05:59 51°11.959 2°36.979 8.3 76 4 101770 76
2004-01-21 09:06:03 51°11.972 2°36.992 8.4 77 4 101790 76
2004-01-21 09:06:09 51°11.991 2°37.01 8.5 74 4 101790 76
2004-01-21 09:06:14 51°12.006 2°37.026 8.3 74 4 101790 76
2004-01-21 09:06:19 51°12.022 2°37.041 9.7 67 4 101790 76
2004-01-21 09:06:23 51°12.035 2°37.053 9.9 63 4 101780 76
2004-01-21 09:06:28 51°12.051 2°37.069 8.9 73 4 101780 76
2004-01-21 09:06:33 51°12.067 2°37.084 9.6 65 4 101790 76
2004-01-21 09:06:39 51°12.086 2°37.102 8.7 69 4 101790 76
2004-01-21 09:06:44 51°12.102 2°37.117 8 73 4 101780 76